TimePDT,TemperatureF,Dew PointF,Humidity,Sea Level PressureIn,VisibilityMPH,Wind Direction,Wind SpeedMPH,Gust SpeedMPH,PrecipitationIn,Events,Conditions,WindDirDegrees,DateUTC
12:56 AM,24.1,10.9,57,30.23,10.0,NNW,9.2,-,N/A,,Mostly Cloudy,340,2013-03-23 07:56:00
1:56 AM,21.0,10.9,65,30.26,10.0,NNW,10.4,-,N/A,,Overcast,330,2013-03-23 08:56:00
2:56 AM,19.9,10.0,65,30.27,10.0,NNW,4.6,-,N/A,,Partly Cloudy,330,2013-03-23 09:56:00
3:56 AM,16.0,8.1,71,30.26,10.0,West,3.5,-,N/A,,Overcast,280,2013-03-23 10:56:00
4:56 AM,14.0,7.0,74,30.29,10.0,Calm,Calm,-,N/A,,Clear,0,2013-03-23 11:56:00
5:56 AM,10.9,7.0,84,30.31,10.0,Variable,3.5,-,0.01,,Clear,0,2013-03-23 12:56:00
6:56 AM,10.0,6.1,84,30.33,10.0,Calm,Calm,-,N/A,,Clear,0,2013-03-23 13:56:00
7:56 AM,17.1,9.0,71,30.34,10.0,Calm,Calm,-,N/A,,Clear,0,2013-03-23 14:56:00
8:56 AM,25.0,12.0,58,30.32,10.0,Variable,3.5,-,N/A,,Clear,0,2013-03-23 15:56:00
9:56 AM,30.0,10.0,43,30.32,10.0,Calm,Calm,-,N/A,,Clear,0,2013-03-23 16:56:00
10:56 AM,33.1,8.1,35,30.30,10.0,Variable,5.8,-,N/A,,Clear,0,2013-03-23 17:56:00
11:56 AM,37.0,7.0,29,30.26,10.0,Variable,3.5,-,N/A,,Clear,0,2013-03-23 18:56:00
12:56 PM,39.0,5.0,24,30.23,10.0,Variable,3.5,-,N/A,,Clear,0,2013-03-23 19:56:00
1:56 PM,41.0,3.9,21,30.22,10.0,Variable,4.6,-,N/A,,Clear,0,2013-03-23 20:56:00
2:56 PM,42.1,1.0,18,30.19,10.0,South,4.6,-,N/A,,Clear,180,2013-03-23 21:56:00
3:56 PM,41.0,-0.0,18,30.19,10.0,Variable,4.6,-,N/A,,Overcast,0,2013-03-23 22:56:00
4:56 PM,44.1,1.9,17,30.17,10.0,North,8.1,-,N/A,,Overcast,350,2013-03-23 23:56:00
5:56 PM,42.1,5.0,22,30.19,10.0,North,5.8,-,N/A,,Overcast,350,2013-03-24 00:56:00
6:56 PM,41.0,5.0,23,30.19,10.0,Calm,Calm,-,N/A,,Overcast,0,2013-03-24 01:56:00
7:56 PM,35.1,5.0,28,30.20,10.0,Calm,Calm,-,N/A,,Clear,0,2013-03-24 02:56:00
8:56 PM,34.0,6.1,31,30.19,10.0,NNE,8.1,-,N/A,,Clear,30,2013-03-24 03:56:00
9:56 PM,25.0,3.9,41,30.20,10.0,ESE,3.5,-,N/A,,Clear,110,2013-03-24 04:56:00
10:56 PM,19.9,3.9,50,30.23,10.0,SSW,3.5,-,N/A,,Clear,200,2013-03-24 05:56:00
11:56 PM,19.9,6.1,55,30.22,10.0,Calm,Calm,-,N/A,,Clear,0,2013-03-24 06:56:00